Location: Redwood Loop Observatory
(43.9900°N, 124.0900°W)
Time: 21:47:17
(UTC-07:00)

N. Korean satellite - Visible Passes

Search period start: 19 March 2019 00:00
Search period end: 29 March 2019 00:00
Orbit: 455 x 510 km, 97.2° (Epoch: 18 March)

Date Brightness Start Highest point End Pass type
(mag) Time Alt. Az. Time Alt. Az. Time Alt. Az.
19 Mar 9.4 06:47:57 10° NE 06:50:50 23° E 06:53:44 10° SSE visible
20 Mar 10.2 06:24:23 10° ENE 06:25:51 12° E 06:27:19 10° ESE visible
23 Mar 9.7 06:42:14 10° NE 06:44:57 20° E 06:47:42 10° SE visible
24 Mar 10.5 06:19:12 10° ENE 06:19:56 10° E 06:20:41 10° ESE visible
27 Mar 9.8 06:36:30 10° NE 06:39:02 18° E 06:41:35 10° SE visible
